Regional Weather Roundup
Issued by NWS

Home | Current Version | Previous Version | Graphics & Text | Print | Product List | Glossary On
Versions: 1 2 3 4 5 6 7 8 9 10 11 12 13 14 15 16 17 18 19 20 21 22 23 24 25 26 27 28 29 30 31 32 33 34 35 36 37 38 39 40 41 42 43 44 45 46 47 48 49 50
978
ASUS44 KMEG 091510
RWRTN
TENNESSEE HOURLY STATE WEATHER ROUNDUP
NATIONAL WEATHER SERVICE MEMPHIS TN
900 AM CST FRI DEC 09 2016

TNZ002-004-019-021-049-052-054-088>092-091600-
WEST TENNESSEE

CITY           SKY/WX    TMP DP  RH WIND       PRES   REMARKS
MEMPHIS INTL   SUNNY     29  15  56 N8        30.67R WCI  21
NWS MEMPHIS      N/A     27 N/A N/A MISG        N/A
JACKSON        SUNNY     27  16  63 N8        30.67R WCI  19
DYERSBURG      SUNNY     25  18  74 N7        30.68R WCI  17
UNION CITY     SUNNY     23  18  80 CALM      30.65R
PARIS          SUNNY     21  14  73 N6        30.63S WCI  14
HUNTINGDON     SUNNY     25  18  74 NW3       30.64R
LEXINGTON      SUNNY     25  16  68 N7        30.62R WCI  17
$$

TNZ008-025-027-028-033-062-065-066-091600-
NORTH MIDDLE TENNESSEE

CITY           SKY/WX    TMP DP  RH WIND       PRES   REMARKS
NASHVILLE      PTSUNNY   27  14  58 N9        30.62R WCI  18
PORTLAND       CLOUDY    25  16  68 N7        30.60R WCI  17
CLARKSVILLE    MOSUNNY   27  16  63 N8        30.62R WCI  19
SMYRNA         CLOUDY    28  17  63 N7        30.63R WCI  21
GALLATIN       MOSUNNY   27  14  59 VRB7      30.65R WCI  19
CROSSVILLE     CLOUDY    22  14  71 N7        30.50R WCI  13
$$

TNZ061-075-076-078-094-096-097-091600-
SOUTH MIDDLE TENNESSEE

CITY           SKY/WX    TMP DP  RH WIND       PRES   REMARKS
FAYETTEVILLE   PTSUNNY   25  18  74 N7        30.57R WCI  17
TULLAHOMA      PTSUNNY   23  14  68 N8        30.56S WCI  14
WINCHESTER     MOSUNNY   25  16  68 NE6       30.56S WCI  18
MCMINNVILLE    CLOUDY    25  16  68 N6          N/A  WCI  18
COLUMBIA       PTSUNNY   25  19  80 N7        30.59R WCI  17
SHELBYVILLE    CLOUDY    27  19  74 N8        30.60R WCI  18
$$

TNZ017-018-042-046-047-091600-
NORTHEAST TENNESSEE

CITY           SKY/WX    TMP DP  RH WIND       PRES   REMARKS
TRI CITIES     FLURRIES  26  13  57 W8        30.48R WCI  18
ELIZABETHTON   LGT RAIN  27  16  63 VRB5G13   30.46R WCI  21
$$

TNZ012-013-036-069-073-074-091600-
CENTRAL EAST TENNESSEE

CITY           SKY/WX    TMP DP  RH WIND       PRES   REMARKS
KNOXVILLE      MOSUNNY   28  14  55 NW8       30.53R WCI  20
OAK RIDGE      PTSUNNY   28  13  53 N3        30.56R
DOWNTOWN KNOXV CLOUDY    28  16  59 VRB3      30.56R
GATLINBURG     CLOUDY    27  16  63 NW5       30.52S WCI  21
MORRISTOWN     CLOUDY    25  14  63 N9        30.50R WCI  15
JACKSBORO      CLOUDY    25  14  63 NE5       30.57R WCI  19
$$

TNZ083-085-099-091600-
SOUTHEAST TENNESSEE

CITY           SKY/WX    TMP DP  RH WIND       PRES   REMARKS
CHATTANOOGA    MOSUNNY   29  16  58 N12       30.57R WCI  19
$$

SKY/WX REPORTED AS FAIR MEANS FEW OR NO CLOUDS BELOW
12 THOUSAND FEET.





USA.gov is the U.S. government's official web portal to all federal, state and local government web resources and services.